Lexington Weather

Lexington, Massachusetts, USA

68°F
9/23/2021 5:23am 
  • Lexington Conditions: Mostly cloudy
  • Temperature: 67.6°F / 19.8°CWarmer 0.9°F than last hour.
  • Dew Point: 66.7°FIncreased 1.2°Fsince last hour.
  • Relative Humidity: 97%Increased 1.0% since last hour.
  • Wind: Calm, 10-min avg: Calm, gust: 3 mph
  • Barometer: 30.03 in Steady
  • Visibility: 10 miles
  • Rain Today: 0.00 in
  •   

Regional Weather Roundup
for Boston / Norton, MA

        
000
ASUS41 KBOX 162204
RWRBOX

REGIONAL WEATHER ROUNDUP
NATIONAL WEATHER SERVICE BOSTON/NORTON MA
600 PM EDT THU SEP 16 2021

NOTE:  "FAIR" INDICATES FEW OR NO CLOUDS BELOW 12,000 FEET WITH NO 
SIGNIFICANT WEATHER AND/OR OBSTRUCTIONS TO VISIBILITY.

MAZALL-162300-
EASTERN MASSACHUSETTS
  
CITY           SKY/WX    TMP DP  RH WIND       PRES   REMARKS
BOSTON         CLOUDY    66  59  78 NE10      30.29F                  
BEVERLY        MOCLDY    66  38  35 NE6       30.29S                  
LAWRENCE       MOCLDY    66  57  72 NE7       30.32R                  
BEDFORD        CLOUDY    67  61  81 E7        30.28S                  
BLUE HILL      NOT AVBL                                               
NORWOOD        CLOUDY    66  60  81 NE6       30.29R                  
MARSHFIELD     CLOUDY    66  63  88 NE10G16   30.28S                  
PLYMOUTH       CLOUDY    66  62  87 NE12      30.28R                  
TAUNTON        MOCLDY    70  64  81 VRB5      30.26S                  
NEW BEDFORD    MOCLDY    70  65  84 NE12      30.26R                  
$$

MAZALL-162300-
CAPE COD AND THE ISLANDS
  
CITY           SKY/WX    TMP DP  RH WIND       PRES   REMARKS
FALMOUTH       CLOUDY    66  64  94 NE14      30.28R                  
HYANNIS        MOCLDY    69  65  86 NE10      30.26R                  
CHATHAM        CLOUDY    67  65  93 NE9       30.29R FOG              
PROVINCETOWN   CLOUDY    65  63  93 NE8       30.29R                  
NANTUCKET      CLOUDY    69  66  90 NE7       30.27R                  
MARTHAS VNYRD  MOCLDY    70  65  84 NE16      30.26R                  
$$
 
MAZALL-162300-
CENTRAL AND WESTERN MASSACHUSETTS
  
CITY           SKY/WX    TMP DP  RH WIND       PRES   REMARKS
WORCESTER      CLOUDY    64  61  90 E6        30.30S                  
FITCHBURG      CLOUDY    67  61  81 NE6       30.30R                  
ORANGE         CLOUDY    68  62  81 E5        30.29R                  
SPRINGFIELD    CLOUDY    71  64  77 E8        30.24R                  
WESTFIELD      CLOUDY    71  67  87 CALM      30.25R                  
NORTH ADAMS    PTSUNNY   72  61  68 E6        30.25R                  
PITTSFIELD     CLOUDY    69  61  75 E5        30.26R                  
$$
 
RIZALL-162300-
RHODE ISLAND
  
CITY           SKY/WX    TMP DP  RH WIND       PRES   REMARKS
PROVIDENCE     MOCLDY    72  65  78 NE9       30.25F                  
NEWPORT        PTCLDY    70  66  87 NE8       30.25R                  
BLOCK ISLAND   PTCLDY    69  65  86 NE10      30.25R                  
SMITHFIELD     CLOUDY    67  63  87 NE12      30.28R                  
WESTERLY       PTCLDY    70  66  87 NE6       30.24R                  
$$
 
CTZALL-162300-
CONNECTICUT
  
CITY           SKY/WX    TMP DP  RH WIND       PRES   REMARKS
BRADLEY INTL   MOCLDY    73  63  70 SE7       30.24S                  
HARTFORD       MOCLDY    74  64  71 SE5       30.24R                  
BRIDGEPORT     CLOUDY    74  66  76 E13       30.22S                  
DANBURY        CLOUDY    74  65  73 E7        30.25R                  
GROTON         PTCLDY    72  66  81 NE10      30.23R                  
NEW HAVEN      CLOUDY    74  68  81 NE7       30.23S                  
CHESTER        CLOUDY    72  68  88 E5        30.25R                  
MERIDEN        CLOUDY    73  63  70 NE5       30.24R                  
WILLIMANTIC    CLOUDY    71  64  78 E5        30.25S                  
OXFORD         CLOUDY    70  64  81 E5        30.26S                  
$$

MEZ002-015-021-024-NHZ003-005-008-011-012-014-VTZ005-008-162300-
NORTHERN NEW ENGLAND
  
CITY           SKY/WX    TMP DP  RH WIND       PRES   REMARKS
PORTLAND ME    CLEAR     64  54  69 SE7       30.32R                  
BANGOR ME      PTCLDY    65  56  72 CALM      30.32R                  
CONCORD NH     NOT AVBL                                               
MANCHESTER NH  CLOUDY    68  54  60 E6        30.29R                  
NASHUA NH      CLOUDY    68  61  78 E7        30.31R                  
PORTSMOUTH NH  MOCLDY    64  54  69 E5        30.32R                  
JAFFREY NH     CLOUDY    66  62  87 CALM      30.32R                  
KEENE NH       CLOUDY    68  62  81 SE5       30.29R                  
BURLINGTON VT  MOSUNNY   72  56  57 NW6       30.25S                  
MT. WASHINGTON MOCLDY    46  43  87 SW7         N/A                   
$$

NYZ052-076-162300-
EASTERN NEW YORK
  
CITY           SKY/WX    TMP DP  RH WIND       PRES   REMARKS
ALBANY         PTSUNNY   71  61  70 NE3       30.23R                  
NEW YORK CITY  CLOUDY    75  65  70 NE16      30.20R                  
$$
 
ANZALL-162300-
MARINE OBSERVATIONS
  
STATION/POSITION TIME  TEMP    WIND        PRES    VSBY  WAVE
                       AIR SEA DIR/SP/G                  HT/PER
                 (UTC) (F)     (DEG/KT/KT) (MB)    (MI)  (FT/S)
BOSTON BUOY      2140      67   40/ 12/ 12 1026.0R
BUZZARDS BAY     2100           30/ 17/ 18 1024.4F
NANTUCKET SOUND  2140   71 72   70/ 17/ 19 1024.5R
MASS BAY-STELLWA 2104   64      60/ 12/ 14 1025.5R  1 7/8  2/ 4
ISLE OF SHOALS   2100   64      80/ 13/ 13 1025.3R
S OF BLOCK IS    2126      69                N/A           3/ 5
$$

......................KEY.........................
  SKY/WX - SKY CONDITION/PRESENT WEATHER
  TMP    - TEMPERATURE IN FAHRENHEIT
  DWPT   - DEWPOINT IN FAHRENHEIT
  RH     - RELATIVE HUMIDITY IN PERCENT
  WIND   - DIRECTION AND SPEED IN MPH
  PRES   - MEAN SEA LEVEL PRESSURE IN INCHES OF HG
  WCI    - WIND CHILL INDEX
  VSB    - VISIBILITY IN MILES
  HX     - HEAT INDEX
  TC     - TEMPERATURE IN CELSIUS
  VRB    - VARIABLE WIND DIRECTION
  N/A    - NOT AVAILABLE
  
      

Other recent Regional Weather Roundups

Thu Sep 23, 5:04am

Thu Sep 23, 4:04am

Thu Sep 23, 3:04am

Thu Sep 23, 2:04am

Thu Sep 23, 1:04am

Thu Sep 23, 12:04am

Wed Sep 22, 11:04pm

Wed Sep 22, 10:04pm

Wed Sep 22, 9:04pm

Wed Sep 22, 8:04pm

Wed Sep 22, 7:04pm

Wed Sep 22, 6:04pm

Wed Sep 22, 5:04pm

Wed Sep 22, 4:04pm

Wed Sep 22, 3:04pm

Wed Sep 22, 2:04pm

Wed Sep 22, 1:04pm

Wed Sep 22, 12:05pm

Wed Sep 22, 11:04am

Wed Sep 22, 10:04am

Wed Sep 22, 9:04am

Wed Sep 22, 8:04am

Wed Sep 22, 7:04am

Wed Sep 22, 6:04am

Wed Sep 22, 5:04am

Wed Sep 22, 4:04am

Wed Sep 22, 3:04am

Wed Sep 22, 2:04am

Wed Sep 22, 1:04am

Wed Sep 22, 12:04am

Tue Sep 21, 11:04pm

Tue Sep 21, 10:04pm

Tue Sep 21, 9:04pm

Tue Sep 21, 8:04pm

Tue Sep 21, 7:04pm

Tue Sep 21, 6:04pm

Tue Sep 21, 5:04pm

Tue Sep 21, 4:04pm

Tue Sep 21, 3:04pm

Tue Sep 21, 2:04pm

Tue Sep 21, 1:04pm

Tue Sep 21, 12:04pm

Tue Sep 21, 11:04am

Tue Sep 21, 10:04am

Tue Sep 21, 9:04am

Tue Sep 21, 8:04am

Tue Sep 21, 7:04am

Tue Sep 21, 6:04am

Tue Sep 21, 5:04am

Tue Sep 21, 4:04am

Tue Sep 21, 3:04am

Tue Sep 21, 2:04am

Tue Sep 21, 1:04am

Tue Sep 21, 12:04am

Mon Sep 20, 11:04pm

Mon Sep 20, 10:04pm

Mon Sep 20, 9:04pm

Mon Sep 20, 8:04pm

Mon Sep 20, 7:04pm

Mon Sep 20, 6:04pm

Mon Sep 20, 5:04pm

Mon Sep 20, 4:04pm

Mon Sep 20, 3:04pm

Mon Sep 20, 2:04pm

Mon Sep 20, 1:04pm

Mon Sep 20, 12:04pm

Mon Sep 20, 11:04am

Mon Sep 20, 10:04am

Mon Sep 20, 9:04am

Mon Sep 20, 7:04am

Mon Sep 20, 6:04am

Mon Sep 20, 5:04am

Mon Sep 20, 4:04am

Mon Sep 20, 3:04am

Mon Sep 20, 2:04am

Mon Sep 20, 1:04am

Mon Sep 20, 12:04am

Sun Sep 19, 11:04pm

Sun Sep 19, 10:04pm

Sun Sep 19, 9:04pm

Sun Sep 19, 8:04pm

Sun Sep 19, 7:04pm

Sun Sep 19, 6:04pm

Sun Sep 19, 5:04pm

Sun Sep 19, 4:04pm

Sun Sep 19, 3:04pm

Sun Sep 19, 2:05pm

Sun Sep 19, 1:04pm

Sun Sep 19, 12:04pm

Sun Sep 19, 11:04am

Sun Sep 19, 10:05am

Sun Sep 19, 9:04am

Sun Sep 19, 8:04am

Sun Sep 19, 7:04am

Sun Sep 19, 6:04am

Sun Sep 19, 5:04am

Sun Sep 19, 4:04am

Sun Sep 19, 3:04am

Sun Sep 19, 2:04am

Sun Sep 19, 1:04am

Sun Sep 19, 12:04am

Sat Sep 18, 11:05pm

Sat Sep 18, 10:04pm

Sat Sep 18, 9:04pm

Sat Sep 18, 8:04pm

Sat Sep 18, 7:04pm

Sat Sep 18, 6:04pm

Sat Sep 18, 5:04pm

Sat Sep 18, 4:04pm

Sat Sep 18, 3:04pm

Sat Sep 18, 2:04pm

Sat Sep 18, 1:04pm

Sat Sep 18, 12:04pm

Sat Sep 18, 11:04am

Sat Sep 18, 10:04am

Sat Sep 18, 9:04am

Sat Sep 18, 8:04am

Sat Sep 18, 7:04am

Sat Sep 18, 6:04am

Sat Sep 18, 5:04am

Sat Sep 18, 4:04am

Sat Sep 18, 3:04am

Sat Sep 18, 2:04am

Sat Sep 18, 1:04am

Sat Sep 18, 12:04am

Fri Sep 17, 11:04pm

Fri Sep 17, 10:04pm

Fri Sep 17, 9:04pm

Fri Sep 17, 8:04pm

Fri Sep 17, 7:04pm

Fri Sep 17, 6:04pm

Fri Sep 17, 5:04pm

Fri Sep 17, 4:04pm

Fri Sep 17, 3:04pm

Fri Sep 17, 2:04pm

Fri Sep 17, 1:04pm

Fri Sep 17, 12:05pm

Fri Sep 17, 11:04am

Fri Sep 17, 10:04am

Fri Sep 17, 9:04am

Fri Sep 17, 8:04am

Fri Sep 17, 7:04am

Fri Sep 17, 6:04am

Fri Sep 17, 5:04am

Fri Sep 17, 4:04am

Fri Sep 17, 3:04am

Fri Sep 17, 2:04am

Fri Sep 17, 1:04am

Fri Sep 17, 12:04am

Thu Sep 16, 11:04pm

Thu Sep 16, 10:04pm

Thu Sep 16, 9:04pm

Thu Sep 16, 8:04pm

Thu Sep 16, 7:04pm

Thu Sep 16, 5:04pm

Thu Sep 16, 4:04pm

Thu Sep 16, 3:04pm

Thu Sep 16, 2:04pm

Thu Sep 16, 1:05pm

Thu Sep 16, 12:04pm

Thu Sep 16, 11:05am

Thu Sep 16, 10:05am

Thu Sep 16, 9:04am

Thu Sep 16, 8:04am

Thu Sep 16, 7:04am

Thu Sep 16, 6:04am

Meta data:

ID: 6bd3827e-cf72-4d88-9de7-627adc0f2ec7
Link: https://api.weather.gov/products/6bd3827e-cf72-4d88-9de7-627adc0f2ec7